Regional Weather Roundup
Issued by NWS Wakefield, VA

Home | Current Version | Previous Version | Text Only | Print | Product List | Glossary On
Versions: 1 2 3 4 5 6 7 8 9 10 11 12 13 14 15 16 17 18 19 20 21 22 23 24 25 26 27 28 29 30 31 32 33 34 35 36 37 38 39 40 41 42 43 44 45 46 47 48 49 50
000
ASUS41 KAKQ 300515
RWRAKQ

REGIONAL WEATHER ROUNDUP
NATIONAL WEATHER SERVICE WAKEFIELD VA
100 AM EDT SUN APR 30 2017

Note: "fair" indicates few or no clouds below 12,000 feet with no
significant weather and/or obstructions to visibility. * = Denotes
station may not report precipitation (e.g., rain,snow,etc.),
thunder or fog.

VAZ042-051-052>054-056-300600-
NORTHERN VIRGINIA

CITY           SKY/WX    TMP DP  RH WIND       PRES   REMARKS
WASH NATIONAL  PTCLDY    76  72  87 S8        30.07S
DULLES         CLEAR     76  69  79 S7        30.07S
FORT BELVOIR   CLEAR     70  70 100 CALM      30.07S FOG
QUANTICO       CLEAR     74  71  91 S12       30.07S
FREDERICKSBRG* CLEAR     77  72  85 S9        30.07S
STAFFORD*      CLEAR     74  72  92 CALM      30.11S
WARRENTON      CLEAR     76  69  77 SW3       30.07S
CULPEPER*      CLEAR     76  72  86 S3        30.08S
MANASSAS*        N/A     73  70  90 S3        30.07S
LEESBURG*      CLEAR     70  70 100 CALM      30.08R
WINCHESTER     PTCLDY    66  63  88 CALM      30.08R
FRONT ROYAL*   PTCLDY    68  68 100 CALM      30.07S
LURAY*         PTCLDY    68  68 100 CALM      30.08F
$$

VAZ048-049-060>072-079>083-300600-
CENTRAL AND SOUTH CENTRAL VIRGINIA

CITY           SKY/WX    TMP DP  RH WIND       PRES   REMARKS
RICHMOND       PTCLDY    74  71  91 S5        30.12R
CHESTERFIELD*  FAIR      72  55  56 CALM      30.14R
PETERSBURG*    CLEAR     67  65  92 CALM      30.13R
HANOVER        CLEAR     76  69  79 S6        30.12S
TAPPAHANNOCK*  CLEAR     75  72  88 CALM      30.12R
QUINTON*       FAIR      75  74  95 CALM      30.12R
CHARLOTTSVILLE PTCLDY    77  71  82 SW7       30.09S
GORDONSVILLE*  PTCLDY    70  70 100 SW3       30.09R
ORANGE*        PTCLDY    72  70  94 CALM      30.09S
LOUISA*        CLEAR     79  73  83 CALM      30.09S
BUMPASS*       FAIR      74  72  95 CALM      30.10S
FARMVILLE*     CLEAR     74  71  93 SW5       30.11S
CREWE*         FAIR      73  73 100 S3        30.12S
FORT PICKETT*  NOT AVBL
CHASE CITY*    FAIR      74  72  92 S6        30.14S
CLARKSVILLE*   FAIR      73  72  94 S8        30.14R
SOUTH HILL*    CLEAR     73  71  92 S8        30.20R
LAWRENCEVILLE* FAIR      73  70  88 S6        30.14S
EMPORIA*       CLEAR     73  68  83 S3        30.15S
$$

VAZ088>098-300600-
SOUTHEAST VIRGINIA

CITY           SKY/WX    TMP DP  RH WIND       PRES   REMARKS
NORFOLK        CLEAR     77  72  84 SW10      30.12S
VIRGINIA BEACH CLEAR     75  70  84 SW12      30.12R
NORFOLK NAVAL  CLEAR     77  72  84 SW9       30.13S
WEST POINT*    CLEAR     73  69  88 CALM      30.13S
SALUDA*        FAIR      72  72 100 CALM      30.11S
NEWPORT NEWS   CLEAR     76  70  82 SW10      30.12S
LANGLEY AFB    CLEAR     77  72  83 SW12      30.11S
FORT EUSTIS    CLEAR     76  71  84 S5        30.10S
WILLIAMSBURG*  CLEAR     77  72  83 CALM      30.13S
HR EXEC AP*    FAIR      75  70  83 SW7       30.11S
FRANKLIN*      CLEAR     75  70  86 S9G17     30.14R
US460-WAKEFLD  CLEAR     76  70  82 SW6       30.13R
$$

VAZ020-022-025-037-045-300600-
WEST CENTRAL AND SOUTHWEST VIRGINIA

CITY           SKY/WX    TMP DP  RH WIND       PRES   REMARKS
STAUNTON*      PTCLDY    67  65  93 S5        30.13S
WAYNESBORO*    PTCLDY    71  69  93 CALM      30.13S
HOT SPRINGS VA PTCLDY    64  63  94 CALM      30.24F
LYNCHBURG      CLEAR     71  69  93 S6        30.14F
DANVILLE       CLEAR     70  69  97 S3        30.13F
SOUTH BOSTON*  FAIR      72  70  95 S5        30.14R
MARTINSVILLE   CLEAR     66  65  96 CALM      30.18R FOG
ROANOKE        PTCLDY    71  69  93 W5        30.16R
BLACKSBURG     CLEAR     71  65  81 CALM      30.22S
DUBLIN*        CLEAR     73  63  72 S8        30.19S
MARION*        MOCLDY    67  65  93 CALM      30.22R
HILLSVILLE*    PTCLDY    68  66  93 CALM      30.21S
RICHLANDS*     FAIR      73  59  62 S5        30.17S
WISE*          MOCLDY    72  59  64 S12G17    30.17S
ABINGDON*      MOCLDY    75  60  59 S7        30.15F
$$

MDZ021>025-VAZ099-100-300600-
SOUTHERN MARYLAND AND THE DELMARVA PENINSULA

CITY           SKY/WX    TMP DP  RH WIND       PRES   REMARKS
PATUXENT RIVER CLEAR     77  75  93 SW8       30.08S
BAY BRIDGE APT CLEAR     75  70  83 S5        30.07R
LEONARDTOWN    CLEAR     77  70  78 SW7       30.10S
DOVER          CLEAR     72  72  99 S3        30.07R
GEORGETOWN     CLEAR     76  71  85 SW6       30.08F
EASTON         CLEAR     76  70  81 CALM      30.11S
CAMBRIDGE      CLEAR     73  70  88 S3        30.08S
SALISBURY      CLEAR     76  72  87 SW7       30.09S
OCEAN CITY     CLEAR     75  70  84 W8        30.10S
WALLOPS ISLAND CLEAR     76  72  87 SW8       30.10F
ACCOMACK*      CLEAR     76  71  84 SW5       30.11F
$$

NCZ012>017-030>032-300600-
NORTH CENTRAL AND EASTERN NORTH CAROLINA

CITY           SKY/WX    TMP DP  RH WIND       PRES   REMARKS
ROANOKE RAPIDS NOT AVBL
RALEIGH        MOCLDY    75  71  87 S9        30.17R
ELIZABETH CITY CLEAR     73  71  93 SW17G24   30.14F
AHOSKIE*         N/A     73  70  91 S7        30.16S
EDENTON*       CLEAR     74  70  86 SW12      30.17S
CURRITUCK*     CLEAR     74  71  91 SW7       30.15S
KILL DEVIL HLS CLEAR     73  69  87 CALM      30.15S
MANTEO         CLEAR     73  69  89 SW14      30.17S
CAPE HATTERAS  CLEAR     73  70  90 SW12      30.20F FOG
TARBORO*       NOT AVBL
GOLDSBORO      PTCLDY    73  73 100 SW6       30.17S
WASHINGTON     PTCLDY    71  69  91 SW6       30.19S
GREENVILLE     PTCLDY    72  72 100 SW7       30.19S
NEW BERN       CLEAR     70  70 100 SW3       30.20F
WILMINGTON     CLOUDY    73  71  93 S8        30.20F
$$

VAZ048-300600-
ELSEWHERE

CITY           SKY/WX    TMP DP  RH WIND       PRES   REMARKS
HARRISBURG PA  CLEAR     69  61  75 VRB5      30.11R
BALTIMORE      PTCLDY    70  67  90 CALM      30.06S
ANNAPOLIS      CLEAR     71  69  93 CALM      30.05S
ANDREWS AFB    CLEAR     75  70  83 S9        30.07S
PHILADELPHIA   PTCLDY    73  60  63 NE10      30.11R
HENDERSON NC   PTCLDY    70  67  89 S7        30.16S
GREENSBORO     CLOUDY    73  68  84 S8        30.15F
ROCKY MOUNT    PTCLDY    73  70  90 S9        30.18R
$$

VAZ100-300600-
MARINE

STATION/POSITION TIME  TEMP    WIND        PRES    WAVE   SWELL
                       AIR SEA DIR/SP/G            HT/PER HT/PER
                 (UTC) (F)     (DEG/KT/KT) (MB)    (FT/S) (FT/S)
CAPE MAY NJ      0448   65 61   CALM  /  1 1018.4S
LEWES DE         0448   77 60  240/  5/  7 1018.4F
15NM E FENWICK I 0450   60 57  200/ 10/ 10 1019.1F   3/ 6   3/ 6
OCEAN-CITY-INLET 0448   65 54  230/  4/  5 1019.3F
WACHAPREAGUE VA  0448   73 73  220/  3/  4 1019.3F
THOMAS POINT MD  0500   72 62  180/ 12/ 13   N/A
GOOSES REEF MD   0500   69 59  170/  8/  8 1019.1
COVE POINT MD    0448   79     220/ 10/ 14 1019.0F
BISHOPS HEAD MD  0448   74 72  200/  8/ 10 1019.3S
PINEY POINT MD   0448          230/ 11/ 12   N/A
POTOMAC MD       0500   71 66  170/  6/  6 1018.0    0
CAMBRIDGE MD     0436   76 69                N/A
LEWISETTA VA     0448   78 71  240/  8/ 10 1018.6F
RAPPAHANNOCK LGT 0448          170/  9/  9 1020.3F
STINGRAY PT      0500   69 65  180/  8/  8 1019.4    0
YORK RVR RNG VA  0448   74     220/ 11/ 13 1018.9F
YORKTOWN VA      0448   78 67  220/  9/ 12 1019.2F
JAMESTOWN VA     0500   75 72  140/  4/  4   N/A     0
DOMINION TERM VA 0448   75     220/  6/  8 1020.1F
KIPTOPEKE VA     0448      67  150/  3/  3   N/A
CHES BAY BRIDGE  0448   75 65  230/ 10/ 11 1019.8R
CAPE HENRY VA    0448   77     210/  6/  9   N/A
WILLOUBY STN VA  0448   76     220/ 14/ 14 1020.8F
S CRANEY ISL VA  0448   77     200/  7/  9 1019.9S
CAPE HENRY BUOY  0442      64                N/A     3/ 6
1ST LANDING BUOY 0500   72 64              1019.9    1/ 4
CAPE CHARLES BUO 0451      62                N/A     2/ 6
64NM E OF VA BCH 0450   63 58  220/ 10/ 10 1021.8R   4/ 6   3/ 6
DUCK PIER NC     0448   74 58  220/ 18/ 22 1020.6F
44100 DUCK FRF   0435      62                N/A     3/ 6
44056 DUCK FRF   0500      60                N/A     2/ 6
OREGON INLET NC  0442   74 78  210/ 21/ 23 1021.2F
HATTERAS NC      0448   72 75  210/ 10/ 13 1022.5F
DIAMOND SHLS NC  0450   76 75  220/ 16/ 17 1022.7F   3/ 5   2/ 7
CAPE LOOKOUT NC  0500   73     210/  8/ 11 1022.4F
$$



USA.gov is the U.S. government's official web portal to all federal, state and local government web resources and services.